User: anonymous   Login
Location: D.A.R.C. Observatory
(36.7133°N, 120.8553°W)
Time: 07:17:25
(UTC-08:00)
Language:

USA 215 - Orbit

View from above orbital plane
View from above orbital plane
View from above satellite
View from above satellite

Ground track
Ground track

The orbit data is extracted from the following two-line orbital elements,

1 37162U 10046A   17021.70943044 0.00000000  00000-0  00000-0 0    05
2 37162 123.0043  80.8617 0003882 177.5899 182.4101 13.41432563    00
Epoch (UTC): 21 January 2017 17:01:34
Eccentricity: 0.0003882
inclination: 123.0043°
perigee height: 1101 km
apogee height: 1107 km
right ascension of ascending node: 80.8617°
argument of perigee: 177.5899°
revolutions per day: 13.41432563
mean anomaly at epoch: 182.4101°
orbit number at epoch: 0

The dashed part of the orbit path shows where the satellite is in the earth's shadow,  

DLR